Location: Newark
(44.2003°N, 3.2583°E)
Time: 18:10:54
(UTC+00:00)

N. Korean satellite - Visible Passes

Search period start: 19 October 2019 00:00
Search period end: 29 October 2019 00:00
Orbit: 455 x 508 km, 97.2° (Epoch: 19 October)

Date Brightness Start Highest point End Pass type
(mag) Time Alt. Az. Time Alt. Az. Time Alt. Az.
19 Oct 8.6 05:14:53 10° NNE 05:18:11 33° E 05:21:31 10° SSE visible
19 Oct 8.7 17:25:13 10° SSW 17:28:18 31° W 17:31:25 10° NNW visible
20 Oct 9.9 04:50:18 10° NE 04:52:45 17° E 04:55:13 10° SE visible
22 Oct 7.4 05:32:09 10° NNE 05:35:43 56° E 05:39:20 10° S visible
22 Oct 9.7 17:43:20 10° SW 17:45:51 19° W 17:48:25 10° NW visible
23 Oct 9.1 05:07:10 10° NE 05:10:20 27° E 05:13:31 10° SSE visible
23 Oct 8.2 17:17:11 10° S 17:20:25 39° W 17:23:42 10° NNW visible
24 Oct 10.2 04:42:49 10° ENE 04:44:52 14° E 04:46:55 10° SE visible
25 Oct 10.2 18:02:03 10° WSW 18:03:26 12° W 18:04:51 10° WNW visible
26 Oct 8.0 05:24:19 10° NNE 05:27:52 45° E 05:31:25 10° S visible
26 Oct 9.3 17:35:05 10° SSW 17:37:56 24° W 17:40:49 10° NW visible
27 Oct 9.4 04:59:29 10° NE 05:02:26 23° E 05:05:25 10° SSE visible
27 Oct 7.6 17:09:08 10° S 17:12:29 50° W 17:15:55 10° NNW visible
28 Oct 10.4 04:35:32 10° ENE 04:36:56 12° E 04:38:20 10° ESE visible
